Flag for Germany Weather past 2 weeks in Buchholz in der Nordheide, Lower Saxony, Germany

Now
63 °F

Sprinkles. Partly sunny.


Feels Like: 63 °F
Forecast: 46 / 68 °F
Wind: 16 mph from East

Location: Hamburg-Fuhlsbuettel


UV Index: 0 (Low)

Visibility: N/A


Pressure: 29.74 "Hg

Humidity: 59%

Dew point: 48 °F

Location of Buchholz in der NordheideLocation

Historic Weather in Buchholz in der Nordheide

°F

Buchholz in der Nordheide temperature yesterday

Maximum temperature yesterday: 68 °F (at 1:50 PM)
Minimum temperature yesterday: 45 °F (at 5:50 AM)
Average temperature yesterday: 56 °F

Past Weeks' High & Low Weather Summary

 TemperatureHumidityPressure
High68 °F (Apr 20, 1:50 PM)100% (Apr 6, 3:50 PM)30.45 "Hg (Apr 6, 3:50 PM)
Low30 °F (Apr 16, 3:50 AM)29% (Apr 16, 5:20 PM)29.65 "Hg (Apr 8, 5:20 AM)
Average50 °F77%30.00 "Hg
* Reported Apr 6 3:20 PM — Apr 21 3:20 PM, Buchholz in der Nordheide, Weather by CustomWeather, © 2014

Note: Actual official high and low records may vary slightly from our data, if they occured in-between our weather recording intervals... More about our weather records

Advertising

Historic Weather Conditions — Data for Previous 24 hours

 ConditionsComfort  
Time TempWeatherWind HumidityBarometerVisibility
3:20 PM
Apr 21
64 °FScattered clouds.8 mph64%29.74 "HgN/A
2:50 PM61 °FSprinkles. Partly sunny.15 mph68%29.74 "HgN/A
2:20 PM61 °FPartly sunny.14 mph68%29.74 "HgN/A
1:50 PM61 °FPartly sunny.12 mph68%29.77 "HgN/A
1:20 PM61 °FScattered clouds.12 mph72%29.77 "HgN/A
12:50 PM59 °FBroken clouds.12 mph77%29.77 "HgN/A
12:20 PM57 °FBroken clouds.10 mph82%29.77 "HgN/A
11:50 AM54 °FPartly sunny.9 mph94%29.77 "HgN/A
11:20 AM54 °FPartly sunny.10 mph94%29.77 "Hg6 mi
10:50 AM52 °FPartly sunny.10 mph94%29.77 "Hg4 mi
10:20 AM52 °FLight rain. Partly sunny.12 mph94%29.77 "Hg4 mi
9:50 AM50 °FLight rain. Partly sunny.10 mph94%29.77 "Hg4 mi
9:20 AM50 °FPartly sunny.10 mph94%29.77 "Hg4 mi
8:50 AM50 °FPartly sunny.9 mph94%29.77 "Hg4 mi
8:20 AM50 °FPartly sunny.9 mph94%29.77 "Hg4 mi
7:50 AM48 °FPartly sunny.8 mph100%29.77 "Hg4 mi
7:20 AM48 °FBroken clouds.8 mph100%29.80 "Hg4 mi
6:50 AM48 °FLight rain. Partly cloudy.9 mph94%29.80 "Hg4 mi
6:20 AM48 °FRain. Partly cloudy.9 mph94%29.80 "Hg4 mi
5:50 AM48 °FLight rain. Passing clouds.9 mph94%29.80 "Hg5 mi
5:20 AM48 °FLight rain. Partly cloudy.10 mph94%29.80 "Hg6 mi
4:50 AM48 °FLight rain. Passing clouds.3 mph94%29.80 "HgN/A
4:20 AM48 °FLight rain. Passing clouds.5 mph94%29.83 "HgN/A
3:50 AM48 °FLight rain. Clear.10 mph94%29.83 "HgN/A
3:20 AM48 °FClear.9 mph87%29.83 "Hg10 mi
2:50 AM48 °FClear.12 mph87%29.83 "Hg10 mi
2:20 AM48 °FPassing clouds.7 mph87%29.83 "HgN/A
1:50 AM48 °FPassing clouds.7 mph87%29.86 "HgN/A
1:20 AM50 °FClear.10 mph82%29.86 "Hg10 mi
12:50 AM50 °FClear.10 mph82%29.86 "Hg10 mi
12:20 AM50 °FClear.10 mph88%29.86 "Hg10 mi
11:50 PM
Apr 20
50 °FClear.10 mph88%29.86 "Hg10 mi
11:20 PM50 °FClear.12 mph88%29.86 "Hg10 mi
10:50 PM52 °FClear.10 mph82%29.89 "Hg10 mi
10:20 PM54 °FClear.9 mph82%29.86 "Hg10 mi
9:50 PM55 °FClear.8 mph77%29.86 "Hg10 mi
9:20 PM55 °FSunny.10 mph77%29.86 "Hg10 mi
8:50 PM59 °FSunny.13 mph72%29.86 "Hg10 mi
8:20 PM59 °FPartly sunny.12 mph72%29.86 "HgN/A
7:50 PM61 °FPartly sunny.10 mph68%29.86 "HgN/A
7:20 PM63 °FScattered clouds.12 mph64%29.86 "HgN/A
6:50 PM63 °FScattered clouds.14 mph64%29.86 "HgN/A
6:20 PM64 °FScattered clouds.15 mph64%29.83 "HgN/A
5:50 PM64 °FPassing clouds.15 mph64%29.83 "HgN/A
5:20 PM64 °FPassing clouds.16 mph64%29.83 "HgN/A
4:50 PM66 °FPassing clouds.15 mph60%29.86 "HgN/A
4:20 PM64 °FPassing clouds.14 mph64%29.86 "HgN/A
Weather by CustomWeather, © 2014

See weather overview